Regional Weather Roundup
Issued by NWS Sioux Falls, SD

Home | Current Version | Previous Version | Text Only | Print | Product List | Glossary On
Versions: 1 2 3 4 5 6 7 8 9 10 11 12 13 14 15 16 17 18 19 20 21 22 23 24 25 26 27 28 29 30 31 32 33 34 35 36 37 38 39 40 41 42 43 44 45 46 47 48 49 50
000
ASUS43 KFSD 070610
RWRFSD

WEATHER ROUNDUP FOR SE SOUTH DAKOTA/SW MINNESOTA/NW IOWA
NATIONAL WEATHER SERVICE SIOUX FALLS SD
100 AM CDT TUE JUL 07 2015

NOTE: "FAIR" INDICATES FEW OR NO CLOUDS BELOW 12,000 FEET WITH NO
SIGNIFICANT WEATHER AND OR OBSTRUCTIONS TO VISIBILITY.


SDZ038>040-050-052>070-070700-
SOUTHEAST SOUTH DAKOTA

CITY           SKY/WX    TMP DP  RH WIND       PRES   REMARKS
BROOKINGS      CLEAR     54  48  82 N6        30.16S
CHAMBERLAIN    CLEAR     60  56  86 CALM      30.17S FOG
6HR MIN TEMP:  60; 6HR MAX TEMP:  73;

HURON          CLEAR     57  54  89 NE5       30.15R
6HR MIN TEMP:  57; 6HR MAX TEMP:  71;

MADISON        FAIR      54  54 100 N7        30.15S
MITCHELL       CLEAR     59  57  93 N3        30.16R FOG
6HR MIN TEMP:  59; 6HR MAX TEMP:  72;

SIOUX FALLS    CLEAR     55  52  89 N5        30.14R
6HR MIN TEMP:  55; 6HR MAX TEMP:  70;

WINNER         FAIR      60  55  83 CALM      30.18S
YANKTON        CLEAR     57  54  88 N6        30.13S
$$

MNZ071-072-080-081-089-090-097-098-070700-
SOUTHWEST MINNESOTA

CITY           SKY/WX    TMP DP  RH WIND       PRES   REMARKS
FAIRMONT       CLEAR     55  46  71 N7        30.08R
JACKSON        CLEAR     54  50  87 N5        30.12R
LUVERNE        CLEAR     59  50  72 N6        30.14R
MARSHALL       CLEAR     54  46  76 N8        30.12R
6HR MIN TEMP:  54; 6HR MAX TEMP:  66;

MONTEVIDEO       N/A    N/A N/A N/A MISG        N/A
PIPESTONE      CLEAR     55  50  82 CALM      30.14S
REDWOOD FALLS  CLEAR     55  48  77 N8        30.11R
TRACY          CLEAR     55  51  86 N7        30.13R
WINDOM         CLEAR     52  48  87 NW7       30.12R
WORTHINGTON    CLEAR     52  46  82 N7        30.12S
$$

IAZ001>003-012>014-020>022-031-032-NEZ013-014-SDZ071-070700-
NORTHWEST IOWA

CITY           SKY/WX    TMP DP  RH WIND       PRES   REMARKS
CHEROKEE       CLEAR     57  53  85 N3        30.12R
DENISON        PTCLDY    59  52  77 N8        30.07S
ESTHERVILLE    CLEAR     53  49  86 N8        30.10R
LE MARS          N/A     55  54  94 CALM      30.14S
ORANGE CITY    CLEAR     55  50  82 N3        30.13S
SHELDON        MOCLDY    52  52 100 CALM      30.12R
SIOUX CITY     CLEAR     59  53  80 N5        30.13R
6HR MIN TEMP:  59; 6HR MAX TEMP:  75;

SPENCER        CLEAR     53  48  83 NW5       30.12R
6HR MIN TEMP:  52; 6HR MAX TEMP:  72;

STORM LAKE     CLEAR     55  52  88 N9        30.11R
$$

ABBREVIATIONS USED IN REMARKS
   TC - TEMPERATURE IN CELSIUS
  WCI - WIND CHILL INDEX
   HX - HEAT INDEX
  VSB - VISIBILITY




USA.gov is the U.S. government's official web portal to all federal, state and local government web resources and services.